CAPE
0 0 0 0 0 0 0 0 0 0 0 0 0 0 62 237 288 239 325 327 355 477 488 194 227 296 139 96 20 0 9 28 99 135 63 34 53 38 13 0 0 0 0
0 0 0 0 0 0 0 0 0 0 0 0 0 0 0 12 127 281 264 329 401 491 531 526 241 243 283 94 47 41 6 0 111 84 68 34 22 2 2 0 0 0 0
0 0 0 0 0 0 0 0 0 0 0 0 0 0 0 0 0 16 199 255 281 389 542 598 451 205 95 166 6 6 6 5 28 23 34 5 2 34 7 0 0 0 0
0 0 0 0 0 0 0 0 0 0 0 0 0 0 0 0 0 0 0 56 213 299 397 554 650 460 146 60 4 0 7 3 32 23 0 0 10 77 8 5 0 0 3
0 0 0 0 0 0 0 0 0 0 0 0 0 0 0 0 0 0 0 2 51 183 250 388 449 397 183 91 30 7 20 4 13 15 0 8 24 70 3 0 0 0 0
0 0 0 0 0 0 0 0 0 0 0 0 0 0 0 0 0 0 0 0 1 28 141 185 299 323 187 123 88 8 104 5 11 0 0 14 15 45 5 1 0 0 0
0 0 0 0 0 0 0 0 0 0 0 0 0 0 0 0 0 0 0 0 0 1 7 124 88 124 139 182 160 60 80 6 0 0 2 5 6 42 20 8 0 0 0
0 0 0 0 0 0 0 0 0 0 0 0 0 0 0 0 0 0 0 1 2 3 10 15 70 1 12 123 253 160 49 24 0 0 2 11 11 37 15 5 0 0 0
0 0 0 0 0 0 0 0 0 0 0 0 0 0 0 0 0 0 0 0 2 6 5 8 18 10 0 0 90 109 69 20 0 1 0 5 28 81 16 0 0 0 2
0 0 0 0 0 0 0 0 0 0 0 0 0 0 0 0 0 0 0 0 0 0 2 5 3 0 0 20 105 92 99 51 10 2 14 14 25 68 14 1 0 0 5
0 0 0 0 0 0 0 0 0 0 0 0 0 0 0 0 0 0 0 0 0 0 1 0 0 8 4 1 56 118 87 23 25 25 29 34 62 72 49 0 4 22 9
0 0 0 0 0 0 0 0 0 0 0 0 0 0 0 0 0 0 0 0 0 0 0 0 0 15 14 2 0 6 29 3 20 30 42 44 70 55 3 4 16 50 111
0 0 0 0 0 0 0 0 0 0 0 0 0 0 0 0 0 0 0 0 0 0 0 0 0 0 18 12 0 13 4 1 13 50 25 46 0 30 3 6 57 161 133
0 0 0 0 0 0 0 0 0 0 0 0 0 0 0 0 0 0 0 0 0 0 0 0 11 4 13 19 3 9 2 2 2 3 10 9 0 0 0 71 195 199 145
0 0 0 0 0 0 0 0 0 0 0 0 0 0 0 0 0 0 0 0 0 0 0 0 25 4 4 25 20 7 1 1 0 0 0 0 0 0 11 105 203 191 123
0 0 0 0 0 0 0 0 0 0 0 0 0 0 0 0 0 0 0 0 0 0 0 6 28 27 6 3 22 17 6 1 1 1 1 0 0 0 40 122 198 188 127
0 0 0 0 0 0 0 0 0 0 0 0 0 0 0 0 0 0 0 0 0 0 6 21 43 25 5 6 4 34 11 1 0 1 0 0 0 0 78 138 195 97 115
0 0 0 0 0 0 0 0 0 0 0 0 0 0 0 0 0 0 0 0 11 17 5 27 67 28 7 7 38 96 49 26 2 1 0 0 2 23 52 102 97 77 65
0 0 0 0 0 0 0 0 0 0 0 0 0 0 0 0 0 0 0 2 29 11 13 24 58 44 23 17 104 168 123 62 3 0 0 0 0 6 19 109 78 49 20
0 0 0 0 0 0 0 0 0 0 0 0 0 0 0 0 3 1 3 8 28 26 9 33 45 75 34 32 121 171 41 1 1 1 1 1 1 1 1 2 0 15 9
0 0 0 0 0 0 0 0 0 0 0 0 0 1 4 3 3 0 0 8 23 17 12 61 38 40 54 5 0 2 3 1 3 2 2 2 1 0 0 1 0 0 0
0 0 0 0 0 0 0 0 0 0 0 0 1 0 1 2 3 0 0 3 5 18 22 57 53 33 0 23 1 0 0 2 3 3 3 2 0 0 0 0 0 0 0
0 0 0 0 0 0 0 0 0 0 0 0 0 0 0 0 0 0 0 0 0 6 7 85 34 0 6 27 0 0 0 0 1 3 3 2 0 0 0 0 0 0 0
0 0 0 0 0 0 0 0 0 0 0 0 0 0 0 0 0 0 0 0 0 0 21 38 35 0 1 5 0 0 0 0 0 1 3 2 1 0 0 0 0 0 0
0 0 0 0 0 0 0 0 0 0 0 0 0 0 0 0 0 0 0 0 0 0 6 12 8 1 0 0 0 1 0 0 0 0 0 1 2 2 1 0 0 0 0
0 0 0 0 0 0 0 0 0 0 0 0 0 0 0 0 0 0 0 0 0 0 0 19 2 2 1 0 0 0 0 0 0 0 0 3 0 2 1 0 0 0 0
CIN
0 0 0 0 0 0 0 0 0 0 0 0 0 0 -189 -76 -56 -79 -51 -33 -7 0 0 -5 0 0 -7 -10 -18 0 -17 -33 -11 -4 -10 -4 0 -1 0 0 0 0 0
0 0 0 0 0 0 0 0 0 0 0 0 0 0 -1 -142 -139 -63 -72 -55 -17 0 0 -1 -2 -1 -1 -13 -9 -8 -11 0 -5 -6 -6 -8 -1 -3 0 0 0 0 0
0 0 0 0 0 0 0 0 0 0 0 0 0 0 0 0 0 -214 -93 -67 -52 -15 0 0 -3 -5 -11 -5 -15 -6 -14 -13 -9 -11 -6 -21 -5 0 -3 0 0 0 0
0 0 0 0 0 0 0 0 0 0 0 0 0 0 0 0 0 0 -1 -193 -77 -33 -13 0 0 -1 -8 -17 -19 -9 -11 -14 -7 -10 0 0 -4 -4 -5 -21 0 0 -1
0 0 0 0 0 0 0 0 0 0 0 0 0 0 0 0 0 0 0 -4 -187 -81 -43 -13 -2 0 -5 -11 -23 -13 -12 -19 -9 -20 0 -10 -5 -1 -1 0 0 0 0
0 0 0 0 0 0 0 0 0 0 0 0 0 0 0 0 0 0 0 0 0 -226 -100 -60 -18 -16 -26 -16 -16 -13 -6 -3 -9 0 0 -18 -8 -1 0 0 0 0 0
0 0 0 0 0 0 0 0 0 0 0 0 0 0 0 0 0 0 0 0 0 -1 0 -96 -86 -60 -51 -21 -10 -15 -9 -3 0 0 -59 -29 -20 0 -56 -1 0 0 0
0 0 0 0 0 0 0 0 0 0 0 0 0 0 0 0 0 0 0 0 0 -1 0 0 -123 -8 -82 -60 -15 -22 -9 -12 0 0 -71 -40 -18 -1 -46 0 0 0 0
0 0 0 0 0 0 0 0 0 0 0 0 0 0 0 0 0 0 0 0 0 0 0 0 0 -11 0 0 -43 -40 -10 -19 0 -54 -19 -33 -25 -1 -33 0 0 0 0
0 0 0 0 0 0 0 0 0 0 0 0 0 0 0 0 0 0 0 0 0 0 0 0 0 -1 0 -19 -40 -17 -18 -38 -44 -48 -29 -27 -7 -25 -14 -7 0 0 0
0 0 0 0 0 0 0 0 0 0 0 0 0 0 0 0 0 0 0 0 0 0 0 0 0 -10 -13 -8 -33 -79 -47 -57 -59 -34 -16 -13 -1 -2 -3 0 -115 -31 -11
0 0 0 0 0 0 0 0 0 0 0 0 0 0 0 0 0 0 0 0 0 0 0 0 0 -5 -7 -22 0 -77 -54 -28 -64 -31 -14 -20 0 -37 -21 -16 -11 -6 -1
0 0 0 0 0 0 0 0 0 0 0 0 0 0 0 0 0 0 0 0 0 0 0 0 0 -1 -7 -32 0 -83 -82 0 -55 -32 -15 0 0 -14 -15 -50 -2 0 -1
0 0 0 0 0 0 0 0 0 0 0 0 0 0 0 0 0 0 0 0 0 0 0 0 -12 -10 -9 -27 -56 -64 -47 0 0 -41 -57 -4 0 0 0 -1 -1 -1 -1
0 0 0 0 0 0 0 0 0 0 0 0 0 0 0 0 0 0 0 0 0 0 0 0 -3 -6 -10 -22 -38 -49 -11 0 -1 0 0 0 0 0 -28 -3 -6 0 0
0 0 0 0 0 0 0 0 0 0 0 0 0 0 0 0 0 0 0 0 0 0 0 -23 -10 -9 -6 -4 -22 -29 -30 0 0 0 -113 0 0 0 -12 -8 0 -4 0
0 0 0 0 0 0 0 0 0 0 0 0 0 0 0 0 0 0 0 0 0 0 -31 -19 -2 -11 -11 0 0 -13 -34 -12 0 -15 -18 -28 -42 0 -27 -8 -1 -4 0
0 0 0 0 0 0 0 0 0 0 0 0 0 0 0 0 0 0 0 0 -7 -14 -23 -16 0 -6 0 0 -12 -6 -5 -10 -18 -20 0 0 -48 -34 -36 -24 -16 -2 0
0 0 0 0 0 0 0 0 0 0 0 0 0 0 0 0 0 0 0 -17 -7 -13 -14 -20 -13 -2 -3 -20 -3 -3 -1 -10 -32 0 0 0 -4 -156 -150 -39 -24 -1 -5
0 0 0 0 0 0 0 0 0 0 0 0 0 0 -1 0 -3 -12 -18 -15 -10 -7 -14 -14 -15 0 -4 -21 -3 -6 -13 -1 0 0 0 0 0 0 -37 -36 -1 -18 -9
0 0 0 0 0 0 0 0 0 0 0 0 -2 -1 -3 -6 -6 0 0 -18 -15 -6 -23 -24 -26 -26 0 -3 0 0 0 0 0 0 0 0 0 0 0 0 0 0 0
0 0 0 0 0 0 0 0 0 0 0 0 -9 0 -9 -8 -6 0 0 -24 -21 -15 -20 -19 -44 -12 0 -10 -1 0 0 0 0 0 0 0 0 0 0 0 0 0 0
0 0 0 0 0 0 0 0 0 0 0 0 0 0 0 -7 0 0 0 0 -5 -26 -42 -7 -11 -7 -17 -6 -2 0 0 0 0 0 0 0 0 0 0 0 0 0 0
0 0 0 0 0 0 0 0 0 0 0 0 0 0 0 0 0 0 0 0 0 -1 -26 -2 -4 0 -8 -23 0 0 0 0 0 0 0 0 0 0 0 0 0 0 0
0 0 0 0 0 0 0 0 0 0 0 0 0 0 0 0 0 0 0 0 0 -1 -35 -13 -6 -1 0 0 0 0 0 0 0 0 0 0 0 0 0 0 0 0 0
0 0 0 0 0 0 0 0 0 0 0 0 0 0 0 0 0 0 0 0 0 0 0 -9 -5 0 0 0 0 0 0 0 0 0 0 0 0 0 0 0 0 0 0
Wind_Speed
10 11 11 12 13 14 16 18 19 21 21 22 22 22 22 23 22 20 18 17 16 13 12 9 8 5 4 4 6 6 7 8 9 9 8 8 8 9 10 12 12 12 13
10 11 11 12 13 15 16 18 19 21 21 22 22 22 22 23 23 23 22 21 19 17 16 13 8 6 4 3 4 4 5 6 7 7 6 5 6 8 9 11 12 13 14
10 10 11 12 14 15 17 18 19 20 21 21 22 22 23 23 23 24 24 23 21 20 18 18 13 11 7 5 4 3 3 4 4 5 5 5 5 6 7 10 11 12 12
9 10 11 13 14 15 17 18 19 20 21 21 21 22 23 23 24 24 24 24 24 22 22 21 17 14 11 6 5 3 4 2 2 3 3 3 4 4 6 8 10 11 11
9 10 11 13 14 16 17 18 19 20 21 21 22 22 23 24 24 24 25 25 25 24 23 23 21 18 14 8 7 5 3 3 1 2 3 3 4 4 6 7 8 9 10
8 9 11 12 14 15 16 18 19 20 21 22 22 23 24 24 25 25 24 23 23 23 24 23 22 20 15 12 8 6 5 4 4 3 4 2 3 3 5 6 6 8 8
8 9 11 12 13 14 16 18 19 20 22 22 23 24 25 26 26 25 25 25 24 23 25 24 22 21 20 15 10 8 7 5 6 6 5 4 2 2 4 4 5 6 7
8 9 11 12 13 14 15 17 19 21 22 23 24 25 27 28 28 27 26 26 25 22 24 25 22 21 21 19 13 10 8 6 7 7 7 6 3 0 3 3 4 5 6
9 9 10 11 13 14 15 16 19 21 23 24 25 27 28 29 29 28 27 25 24 23 23 25 23 21 21 21 16 13 9 8 10 10 8 7 7 3 1 2 3 4 6
8 9 10 11 13 14 15 17 19 21 23 25 26 27 28 30 30 29 27 26 25 25 24 24 24 21 22 21 20 16 10 10 11 10 11 10 5 3 1 1 2 4 5
7 9 10 11 12 13 16 18 19 22 24 26 28 28 30 30 30 29 27 27 26 25 24 23 21 20 18 19 18 12 9 12 12 11 8 9 7 5 2 0 2 3 5
5 7 8 10 10 12 15 18 20 23 25 27 28 29 30 31 30 29 28 27 26 25 24 23 19 17 14 15 14 10 10 13 13 12 9 6 4 4 3 2 2 3 5
5 8 7 7 9 11 14 17 20 23 25 27 28 29 31 31 31 30 29 27 26 24 24 22 16 13 12 13 13 13 11 11 14 13 10 6 7 2 2 5 4 6 4
4 5 6 7 8 11 14 17 21 23 26 27 28 29 31 32 32 31 29 28 25 22 23 20 13 12 11 11 12 10 10 9 10 10 9 8 6 6 2 5 4 3 4
4 5 8 8 8 11 14 18 21 24 26 27 28 29 30 31 31 30 30 26 24 22 21 20 13 9 10 10 9 9 8 5 5 6 8 5 4 9 8 6 6 1 4
4 6 8 9 10 12 16 19 22 24 26 28 29 29 28 28 28 30 29 27 24 21 20 20 15 9 12 13 11 11 10 9 8 10 11 11 9 12 17 10 8 1 6
4 7 8 10 12 14 17 20 22 24 27 28 28 28 28 28 29 29 27 26 24 22 22 19 14 12 11 11 10 10 11 12 12 12 12 12 11 14 15 15 12 3 4
4 6 10 11 13 15 17 19 22 25 27 28 27 27 28 28 27 26 25 24 22 20 19 19 15 11 10 10 7 8 8 9 13 13 10 10 10 10 12 14 10 3 12
5 7 9 11 13 15 17 20 23 25 26 27 26 26 26 26 26 24 23 22 22 20 20 21 17 9 8 7 7 7 11 14 11 9 8 7 7 7 6 3 2 14 6
8 9 11 12 14 16 18 21 24 25 26 25 25 26 25 23 22 22 22 22 22 19 21 20 18 8 4 8 6 8 9 11 9 8 7 5 3 3 3 4 7 6 2
9 10 11 12 14 16 20 23 25 25 24 24 26 24 23 22 19 21 21 21 21 20 22 20 15 14 21 12 11 7 8 8 11 9 7 4 2 2 5 8 5 3 3
9 10 11 13 14 17 20 23 23 22 22 24 25 24 23 21 20 17 18 17 18 19 18 19 23 16 19 29 28 15 19 15 9 10 8 5 5 11 9 4 6 5 5
9 10 11 13 15 18 20 21 21 21 22 24 24 23 21 21 19 17 14 15 15 15 19 20 24 22 19 27 14 24 25 27 18 11 8 3 3 5 9 6 6 6 7
9 11 11 13 15 18 20 21 21 22 23 22 22 20 19 12 18 9 13 13 12 13 14 17 21 21 11 14 20 19 21 19 19 14 8 4 7 7 8 10 11 9 10
10 10 11 13 15 18 19 20 20 20 20 21 20 18 16 15 17 12 11 12 11 12 13 16 15 19 16 14 13 20 15 17 17 15 11 11 11 13 9 11 12 12 11
11 11 11 12 15 17 18 19 19 18 20 19 19 16 12 11 11 10 10 11 11 11 11 11 10 10 4 10 9 5 14 23 11 10 14 16 15 16 16 15 14 12 12
Wind_Direction
66 62 54 42 28 17 5 355 346 339 335 332 328 328 330 333 332 337 339 339 340 343 344 349 355 18 49 44 50 54 40 20 20 5 9 45 51 43 31 30 25 18 16
74 59 44 32 21 10 1 356 349 342 336 332 329 328 326 327 330 334 329 326 329 330 328 328 339 343 352 14 14 60 28 17 17 19 25 31 24 34 33 34 30 23 15
64 48 36 27 16 6 359 354 349 346 343 339 336 332 328 325 327 326 329 328 327 325 324 318 323 323 327 334 352 19 18 6 27 36 33 21 26 35 32 27 18 14 16
48 34 23 17 11 5 359 354 349 346 345 344 341 338 334 330 326 325 325 326 326 323 318 315 317 318 317 313 315 329 339 7 359 353 2 14 350 343 8 1 357 8 12
36 24 18 11 6 1 357 355 351 347 344 343 342 340 336 331 330 327 321 319 321 322 319 315 313 315 312 306 303 307 301 312 282 308 322 351 356 344 330 345 351 357 8
35 27 20 15 9 3 0 358 353 349 345 342 340 337 335 332 330 329 327 325 322 323 320 318 316 313 312 305 296 296 291 282 272 276 292 316 339 359 356 341 354 359 358
39 26 18 13 8 5 1 357 354 350 345 343 341 338 333 330 328 330 328 326 323 320 318 318 316 314 312 306 294 288 284 267 266 271 275 281 316 15 1 10 358 0 5
33 19 13 9 6 3 2 358 353 347 343 340 339 335 328 325 325 327 327 326 325 325 318 315 314 312 308 305 295 282 274 258 261 264 262 267 272 331 8 19 7 357 357
20 13 7 4 0 358 358 355 351 346 344 340 338 333 329 326 324 325 326 326 326 325 321 314 314 310 307 299 292 279 262 247 261 264 255 264 268 203 14 47 19 36 333
10 4 0 357 354 353 351 350 348 345 344 340 337 334 330 326 325 325 325 324 323 322 320 316 311 309 304 297 290 282 255 244 257 260 266 263 230 210 238 5 40 35 25
4 357 354 351 352 351 347 344 344 343 341 338 336 333 329 325 325 326 326 324 322 322 320 316 313 309 303 293 286 273 248 255 251 254 268 257 231 231 199 24 350 10 355
359 352 352 350 350 349 346 345 343 341 340 338 337 334 330 326 325 326 326 325 323 322 320 317 313 311 301 290 284 270 266 258 254 254 251 217 256 229 269 84 20 8 23
357 350 350 352 350 348 345 345 343 342 341 338 336 333 329 326 325 325 326 326 324 322 321 319 314 309 295 281 279 273 263 260 255 252 221 207 238 232 291 88 63 58 59
345 346 350 348 346 346 344 344 343 343 341 339 337 332 328 326 324 323 325 325 324 323 321 321 318 309 288 276 272 264 266 258 252 230 206 205 213 240 36 304 315 352 80
346 346 349 353 350 347 346 345 343 342 341 339 338 334 331 327 326 326 325 324 323 321 320 319 315 307 282 269 264 259 256 235 207 195 206 194 205 260 277 291 281 26 85
348 351 357 358 355 352 348 345 344 344 342 340 338 337 335 333 331 328 326 323 320 321 319 316 309 293 278 265 258 253 245 235 238 234 249 254 258 252 262 264 262 272 110
355 360 1 359 359 356 351 347 346 346 344 341 340 340 337 335 331 328 326 322 321 318 312 314 303 284 275 266 252 247 245 244 247 254 262 266 268 261 257 255 261 140 162
9 11 4 8 3 360 356 352 350 347 345 344 343 341 339 337 336 333 329 325 322 317 311 299 294 278 266 259 244 232 239 245 246 255 269 267 268 271 260 257 264 167 140
27 23 21 14 9 5 1 357 353 351 350 349 348 347 345 342 339 337 334 328 320 308 294 283 285 277 265 247 234 237 243 243 248 248 251 267 274 276 287 286 193 217 141
33 32 25 19 14 9 6 359 355 355 356 359 356 354 355 353 350 348 332 322 321 299 281 278 277 283 243 235 219 232 249 244 228 232 232 261 295 291 347 215 187 182 98
43 36 31 24 15 12 5 0 358 360 4 4 2 6 8 6 8 348 331 317 294 287 268 272 283 265 237 234 230 228 237 243 228 212 226 218 185 52 173 178 179 203 356
50 41 36 24 20 13 9 5 7 9 11 6 8 13 15 19 360 14 291 265 277 278 273 265 241 242 250 223 219 220 222 219 210 210 205 186 196 204 191 209 241 273 309
54 48 40 31 23 17 13 13 14 15 15 12 14 21 30 19 352 40 267 268 267 244 224 222 219 225 235 224 210 219 213 210 206 222 210 197 221 218 226 243 259 282 304
51 48 42 37 29 22 19 19 20 21 19 22 27 36 44 75 337 266 256 251 241 210 198 206 211 221 235 197 215 225 220 205 207 203 227 253 249 238 256 266 270 300 306
49 56 49 42 33 27 25 26 28 28 30 33 43 54 78 74 333 261 240 242 204 193 206 214 236 220 223 215 218 210 207 208 218 228 233 250 254 256 275 280 271 276 307
44 60 54 48 39 33 33 34 37 39 38 46 55 76 121 151 180 208 236 230 206 201 211 205 234 230 242 224 217 200 220 222 239 250 246 240 244 247 240 245 250 272 290